SL-4 R/B

Last updated on Jan. 18, 2020, 12:02 a.m. UTC

1 39679U 14021B   20017.45339185 -.00000006  00000-0  18221-4 0  9995
2 39679  51.6164  92.7316 0172814 139.0155 222.3953 15.06279827316434

Satellite is not in orbit.